Miscellaneous Local Product
Issued by NWS Hastings, NE

Home | Current Version | Previous Version | Text Only | Print | Product List | Glossary Off
Versions: 1 2 3 4 5 6 7 8 9 10 11 12 13 14 15 16 17 18 19 20 21 22 23 24 25 26 27 28 29 30 31 32 33 34 35 36 37 38 39 40 41 42 43 44 45 46 47 48 49 50

000
AXUS43 KGID 100502
MISGRI

GID CWA HOURLY WEATHER ROUNDUP
NATIONAL WEATHER SERVICE HASTINGS NE
1200 AM CDT THU JUL 10 2014

NOTE: "FAIR" INDICATES FEW OR NO CLOUDS BELOW 12,000 FEET WITH NO
SIGNIFICANT WEATHER AND/OR OBSTRUCTIONS TO VISIBILITY.

...SOUTH CENTRAL NEBRASKA...

CITY           SKY/WX    TMP DP  RH WIND       PRES   REMARKS
GRAND ISLAND   LGT RAIN  66  61  84 SE23G32   30.02R
HASTINGS       TSTM      66  60  81 E16G24    30.07R
KEARNEY        CLOUDY    64  61  88 E15G23    30.07R
ORD            CLOUDY    64  60  87 E7        30.01S
YORK           CLOUDY    66  61  82 S16G25    30.00R
AURORA         CLOUDY    66  62  87 S16G24    30.02S
LEXINGTON      MOCLDY    65  62  90 E28G35    30.01S
HOLDREGE       CLOUDY    64  61  88 E18G30    30.02S
HEBRON         RAIN      68  64  86 E8        30.08F

...NEBRASKA PANHANDLE...

CITY           SKY/WX    TMP DP  RH WIND       PRES   REMARKS
CHADRON        NOT AVBL
ALLIANCE       CLEAR     65  60  84 E16       29.96S
SCOTTSBLUFF    CLEAR     69  62  78 E7        29.95R
SIDNEY         CLEAR     66  57  72 S7        29.98R

...WESTERN AND NORTH CENTRAL NEBRASKA...

CITY           SKY/WX    TMP DP  RH WIND       PRES   REMARKS
VALENTINE      CLEAR     61  59  93 E5        29.99F
AINSWORTH      MOCLDY    62  61  96 S10       30.01S
ONEILL         MOCLDY    63  59  88 SE3       30.01F
BROKEN BOW     NOT AVBL
IMPERIAL       PTCLDY    75  64  68 SE14      29.94R
NORTH PLATTE   PTCLDY    64  61  90 E18       30.00R
MCCOOK         PTCLDY    78  56  46 SE20G26   29.93F

...EASTERN NEBRASKA...

CITY           SKY/WX    TMP DP  RH WIND       PRES   REMARKS
NORFOLK        MOCLDY    66  59  78 S9        30.02S
SO SIOUX CITY  CLEAR     64  61  90 E6        30.01S
TEKAMAH        MOCLDY    64  61  90 CALM      30.01S
ALBION         CLOUDY    63  62  96 SE3       30.03S
OMAHA EPPLEY   NOT AVBL
OFFUTT AFB     CLOUDY    68  67  99 SE6       30.02S
MILLARD        CLOUDY    70  61  74 S3        30.02S
LINCOLN        CLOUDY    68  63  84 S6        30.04S
NEBRASKA CITY  CLOUDY    67  66  95 SW12      30.06R
BEATRICE       RAIN      64  62  94 S12       30.08F
FALLS CITY     CLOUDY    69  64  84 S3        30.05R

...NORTHERN KANSAS...

CITY           SKY/WX    TMP DP  RH WIND       PRES   REMARKS
GOODLAND       CLOUDY    71  52  50 S6        29.98R
HILL CITY      MOCLDY    77  56  48 E9        29.98R
NORTON         PTCLDY    75  54  46 E12       29.99R
PHILLIPSBURG   MOCLDY    72  61  68 E24G31    30.01R
SMITH CENTER   MOCLDY    68  63  83 E22       30.03F
BELOIT         CLEAR     68  63  83 NE14G20   30.04R
HAYS           CLOUDY    75  57  53 S17       29.99R
RUSSELL        CLOUDY    75  59  57 SE18      29.93F
CONCORDIA      CLOUDY    70  64  81 E17G25    30.05S
SALINA         LGT RAIN  77  61  57 E15       30.02S
TOPEKA         MOCLDY    74  66  76 S7        30.04F



USA.gov is the U.S. government's official web portal to all federal, state and local government web resources and services.